EW6174 Weather Reports


time (UTC)temp
C
wind
direction
speed
KPH
gust
KPH
rain 1hr
cm
rain 24hr
cm
rain mn
cm
humidity
%
barometer
mb
20260510064555 13 134 0.0 6.4 0.00 0.66 0.58 94 1010.1
20260510063047 13 137 0.0 0.0 0.00 0.66 0.58 94 1010.0
20260510061541 13 137 0.0 0.0 0.03 0.66 0.58 94 1010.1
20260510060039 13 137 0.0 1.6 0.05 0.66 0.58 94 1009.9
20260510054535 13 137 0.0 0.0 0.08 0.66 0.58 94 1010.1
20260510053037 13 137 0.0 0.0 0.08 0.66 0.58 94 1010.1
20260510051537 12 137 0.0 0.0 0.08 0.64 0.56 94 1010.1
20260510050031 12 137 0.0 4.8 0.05 0.61 0.53 94 1010.0
20260510044541 12 138 0.0 4.8 0.03 0.58 0.51 94 1009.9
20260510043028 12 140 1.6 4.8 0.03 0.58 0.51 94 1010.0
20260510041527 13 143 0.0 1.6 0.00 0.56 0.48 94 1010.2
20260510040030 13 143 0.0 1.6 0.00 0.56 0.48 94 1010.1
20260510034533 13 143 0.0 1.6 0.03 0.56 0.48 93 1010.2
20260510033022 13 143 0.0 0.0 0.03 0.56 0.48 93 1010.5
20260510031521 13 143 0.0 0.0 0.10 0.56 0.48 93 1010.6
20260510030019 13 143 0.0 0.0 0.10 0.56 0.48 93 1010.8
20260510024517 13 143 0.0 0.0 0.08 0.53 0.46 93 1011.0
20260510023016 13 143 0.0 0.0 0.10 0.53 0.46 93 1011.1
20260510021523 13 143 0.0 0.0 0.03 0.46 0.38 93 1011.4
20260510020013 13 143 0.0 0.0 0.03 0.46 0.38 93 1011.4
20260510014512 13 143 0.0 0.0 0.05 0.46 0.38 92 1011.4
20260510013011 13 143 0.0 0.0 0.03 0.43 0.36 92 1011.3
20260510011510 13 143 0.0 0.0 0.03 0.43 0.36 92 1011.4
20260510010009 13 143 0.0 0.0 0.05 0.43 0.36 92 1011.5
20260510004508 13 143 0.0 3.2 0.03 0.41 0.33 92 1011.6
20260510003007 13 143 0.0 3.2 0.08 0.41 0.33 91 1011.5
20260510001506 13 143 0.0 3.2 0.18 0.41 0.33 91 1011.5
20260510000009 13 143 0.0 0.0 0.20 0.38 0.30 90 1011.4
20260509234504 13 143 0.0 0.0 0.25 0.38 0.30 90 1011.4
20260509233001 13 143 0.0 0.0 0.20 0.33 0.25 89 1011.7
20260509231559 13 143 0.0 3.2 0.13 0.23 0.15 88 1011.8
20260509230057 14 143 0.0 0.0 0.10 0.18 0.10 88 1012.0
20260509224600 14 143 0.0 0.0 0.08 0.13 0.05 87 1012.4
20260509223051 15 143 0.0 3.2 0.10 0.13 0.05 86 1012.3
20260509221602 15 143 0.0 1.6 0.10 0.10 0.03 84 1012.2
20260509220045 15 143 0.0 4.8 0.08 0.08 0.00 82 1012.1
20260509214544 16 144 1.6 4.8 0.05 0.05 0.05 78 1012.2
20260509213044 16 146 3.2 11.3 0.03 0.03 0.03 74 1012.3
20260509211546 17 126 6.4 11.3 0.00 0.00 0.00 68 1011.9
20260509210046 17 130 3.2 6.4 0.00 0.00 0.00 65 1012.0
20260509204546 17 134 3.2 12.9 0.00 0.00 0.00 62 1012.0
20260509203042 17 100 1.6 9.7 0.00 0.00 0.00 61 1012.0
20260509201549 17 100 1.6 6.4 0.00 0.00 0.00 61 1011.9
20260509200051 17 117 0.0 11.3 0.00 0.00 0.00 61 1011.8
20260509194541 17 121 0.0 1.6 0.00 0.00 0.00 61 1011.9
20260509193042 17 121 1.6 9.7 0.00 0.00 0.00 60 1011.8
20260509191540 18 119 0.0 0.0 0.00 0.00 0.00 60 1011.7
20260509190045 18 119 0.0 0.0 0.00 0.00 0.00 58 1011.7
20260509184538 18 119 0.0 3.2 0.00 0.00 0.00 56 1011.6
20260509183040 19 120 0.0 3.2 0.00 0.00 0.00 55 1011.4
20260509181540 19 119 0.0 4.8 0.00 0.00 0.00 54 1011.2
20260509180038 20 119 0.0 6.4 0.00 0.00 0.00 53 1011.1
20260509174537 20 118 3.2 9.7 0.00 0.00 0.00 51 1011.1
20260509173035 20 116 4.8 11.3 0.00 0.00 0.00 49 1011.2
20260509171538 20 117 3.2 16.1 0.00 0.00 0.00 47 1011.1
20260509170033 21 115 3.2 12.9 0.00 0.00 0.00 46 1011.3
20260509164534 21 92 3.2 12.9 0.00 0.00 0.00 44 1011.4
20260509163031 21 124 4.8 16.1 0.00 0.00 0.00 42 1011.4
20260509161530 21 69 3.2 11.3 0.00 0.00 0.00 39 1011.5
20260509160029 21 56 3.2 11.3 0.00 0.00 0.00 40 1011.6
20260509154527 21 58 1.6 14.5 0.00 0.00 0.00 39 1011.8
20260509153025 22 70 4.8 14.5 0.00 0.00 0.00 38 1011.9
20260509151524 22 111 6.4 14.5 0.00 0.00 0.00 35 1011.9
20260509150032 23 161 1.6 14.5 0.00 0.00 0.00 35 1012.1
20260509144530 23 88 1.6 16.1 0.00 0.00 0.00 35 1012.3
20260509143019 22 160 4.8 17.7 0.00 0.00 0.00 34 1012.5
20260509141522 22 111 6.4 16.1 0.00 0.00 0.00 39 1012.6
20260509140016 22 51 1.6 17.7 0.00 0.00 0.00 40 1012.5
20260509134513 23 54 4.8 17.7 0.00 0.00 0.00 39 1012.8
20260509133011 23 85 1.6 16.1 0.00 0.00 0.00 42 1013.0
20260509131509 23 28 4.8 17.7 0.00 0.00 0.00 39 1013.1
20260509130013 23 72 4.8 16.1 0.00 0.00 0.00 40 1013.3
20260509124509 24 69 1.6 12.9 0.00 0.00 0.00 39 1013.3
20260509123006 24 32 4.8 16.1 0.00 0.00 0.00 37 1013.3
20260509121509 24 176 4.8 16.1 0.00 0.00 0.00 39 1013.3
20260509120001 24 144 4.8 14.5 0.00 0.00 0.00 38 1013.5
20260509114559 23 149 4.8 14.5 0.00 0.00 0.00 38 1013.6
20260509113058 23 126 6.4 17.7 0.00 0.00 0.00 38 1013.7
20260509111554 23 142 8.0 19.3 0.00 0.00 0.00 38 1013.8
20260509110051 23 73 6.4 22.5 0.00 0.00 0.00 37 1014.1
20260509104549 23 117 3.2 12.9 0.00 0.00 0.00 37 1014.1
20260509103052 23 159 1.6 12.9 0.00 0.00 0.00 39 1014.3
20260509101551 22 90 4.8 14.5 0.00 0.00 0.00 36 1014.5
20260509100042 22 169 4.8 12.9 0.00 0.00 0.00 39 1014.6
20260509094539 22 151 1.6 6.4 0.00 0.00 0.00 44 1014.5
20260509093035 21 112 3.2 14.5 0.00 0.00 0.00 42 1014.6
20260509091531 21 71 1.6 8.0 0.00 0.00 0.00 46 1014.8
20260509090028 20 66 1.6 6.4 0.00 0.00 0.00 49 1015.1
20260509084526 20 74 1.6 6.4 0.00 0.00 0.00 50 1015.1
20260509083021 20 109 3.2 4.8 0.00 0.00 0.00 50 1015.4
20260509081520 20 107 4.8 6.4 0.00 0.00 0.00 49 1015.5
20260509080016 19 111 3.2 6.4 0.00 0.00 0.00 50 1015.5
20260509074512 18 109 3.2 11.3 0.00 0.00 0.00 52 1015.6
20260509073010 17 94 1.6 4.8 0.00 0.00 0.00 59 1015.7
20260509071504 16 128 1.6 4.8 0.00 0.00 0.00 71 1015.5
20260509070100 14 250 0.0 4.8 0.00 0.00 0.00 86 1015.7